Location: Moonridge Observatory
(39.2268°N, 77.7914°W)
Time: 13:18:58
(UTC-05:00)

Amateur Radio Satellites - All Passes

Search period start: 21 January 2018 12:48
Search period end: 22 January 2018 12:48
Location: Moonridge Observatory, 39.2268°N, 77.7914°W

Satellite Date Start Highest point End Downlink Frequencies (MHz)
Time Altitude Azimuth
AO-85 21 Jan 13:10:23 13:13:16 18° 315° (NW) 13:16:16 145.980
SO-50 21 Jan 13:15:06 13:18:57 24° 47° (NE) 13:22:50 436.795
SPROUT 21 Jan 13:19:22 13:23:19 36° 289° (WNW) 13:27:15 437.525
50 SAT 21 Jan 13:20:33 13:22:09 13° 94° (E) 13:23:46 437.505
VELOX 1 21 Jan 13:26:13 13:30:33 61° 286° (WNW) 13:34:54 145.980
UKube-1 21 Jan 13:29:02 13:31:27 15° 93° (E) 13:33:50 .
Gurwin Techsat 1B 21 Jan 13:40:46 13:45:53 49° 260° (W) 13:51:02 435.225
DX 1 21 Jan 13:40:49 13:44:46 34° 98° (E) 13:48:43 434.975-435.025
AO-91 21 Jan 13:42:41 13:45:11 19° 265° (W) 13:47:43 145.960
Oscar 19 21 Jan 13:51:10 13:55:38 29° 264° (W) 14:00:08 437.125/150
SRMSAT 21 Jan 14:04:19 14:05:27 11° 175° (S) 14:06:35 437.500
AO-7 21 Jan 14:21:22 14:29:35 67° 68° (ENE) 14:37:53 .
RS-15 21 Jan 14:37:06 14:46:23 25° 25° (NNE) 14:55:17 29.354- 29.394
50 SAT 21 Jan 14:51:18 14:53:51 23° 289° (WNW) 14:56:23 437.505
SO-50 21 Jan 14:55:06 14:59:34 42° 244° (WSW) 15:04:03 436.795
ITAMSAT 1 21 Jan 14:57:46 15:02:51 63° 73° (ENE) 15:07:58 435.822/435.867
ITUPSAT 1 21 Jan 15:00:03 15:03:57 24° 95° (E) 15:07:49 437.325
UKube-1 21 Jan 15:03:33 15:07:40 45° 288° (WNW) 15:11:45 .
DX 1 21 Jan 15:17:31 15:20:42 20° 293° (WNW) 15:23:54 434.975-435.025
MOZHAYETS 4 21 Jan 15:24:29 15:29:09 83° 102° (ESE) 15:33:45
CUBESAT XI-V 21 Jan 15:29:56 15:33:33 22° 94° (E) 15:37:07 437.345
BEESAT 21 Jan 15:38:39 15:43:25 62° 101° (ESE) 15:48:09 436.000
SRMSAT 21 Jan 15:53:10 15:53:40 10° 186° (S) 15:54:11 437.500
M-CUBED/EXP-1 PRIME 21 Jan 16:02:36 16:06:59 88° 249° (WSW) 16:11:06 437.505
NO-84 21 Jan 16:14:20 16:17:18 36° 131° (SE) 16:20:06 435.350 FM
AO-7 21 Jan 16:16:14 16:22:52 26° 265° (W) 16:29:34 .
DOVE 4 21 Jan 16:24:31 16:28:48 69° 258° (WSW) 16:32:59 437.250
CUTE-I 21 Jan 16:37:00 16:41:01 22° 65° (ENE) 16:45:04 437.470
ITUPSAT 1 21 Jan 16:37:27 16:41:46 34° 291° (WNW) 16:46:05 437.325
LilacSat-2 21 Jan 16:39:02 16:42:02 22° 69° (ENE) 16:45:02 437.200
ITAMSAT 1 21 Jan 16:39:57 16:42:43 14° 269° (W) 16:45:30 435.822/435.867
XW-2C 21 Jan 16:40:27 16:43:20 21° 69° (ENE) 16:46:14 145.795 - 145.815
KKS-1 21 Jan 16:49:13 16:52:38 21° 95° (E) 16:56:02 437.445
RS-15 21 Jan 16:49:58 17:01:41 67° 54° (NE) 17:12:43 29.354- 29.394
STARS 21 Jan 17:04:46 17:06:13 11° 91° (E) 17:07:40 437.465
MOZHAYETS 4 21 Jan 17:05:13 17:05:34 10° 299° (WNW) 17:05:54
CUBESAT XI-V 21 Jan 17:06:49 17:10:56 33° 290° (WNW) 17:15:02 437.345
KAITUO 1B 21 Jan 17:12:25 17:15:50 34° 73° (ENE) 17:19:16 145.475/437.950
XW-2F 21 Jan 17:15:09 17:18:50 50° 75° (ENE) 17:22:32 145.980 - 146.000
BEESAT 3 21 Jan 17:15:10 17:17:31 15° 45° (NE) 17:19:49 437.485
BEESAT 21 Jan 17:18:05 17:20:38 14° 298° (WNW) 17:23:09 436.000
NUDT-PHONESAT 21 Jan 17:21:53 17:25:25 42° 74° (ENE) 17:28:57 437.300
XW-2D 21 Jan 17:25:22 17:29:11 80° 77° (ENE) 17:33:01 145.860 - 145.880
HO-68 21 Jan 17:27:06 17:33:38 40° 65° (ENE) 17:40:11 435.675
CUTE 1.7 + AOD 2 21 Jan 17:28:58 17:32:17 23° 69° (ENE) 17:35:37 437.475
XW-2B 21 Jan 17:43:02 17:46:50 63° 260° (W) 17:50:38 145.730 - 145.750
CUBEBUG 2 21 Jan 17:48:33 17:52:06 24° 68° (ENE) 17:55:45 437.445
NO-84 21 Jan 17:52:18 17:54:32 18° 326° (NNW) 17:56:40 435.350 FM
UWE-3 21 Jan 17:53:19 17:55:59 16° 65° (ENE) 17:58:44 435.000/436.395/437.385
BEESAT 2 21 Jan 18:05:04 18:07:17 14° 44° (NE) 18:09:29 435.950
LilacSat-2 21 Jan 18:13:00 18:16:10 24° 264° (W) 18:19:20 437.200
XW-2C 21 Jan 18:14:10 18:17:21 25° 264° (W) 18:20:33 145.795 - 145.815
ZACube-1 21 Jan 18:15:33 18:17:56 14° 64° (ENE) 18:20:21 437.345
CUTE-I 21 Jan 18:15:40 18:20:45 45° 261° (W) 18:25:50 437.470
PCSat 21 Jan 18:19:30 18:24:32 37° 54° (NE) 18:29:33 145.827
AO-73 21 Jan 18:21:45 18:24:13 15° 64° (ENE) 18:26:41 145.935
KKS-1 21 Jan 18:25:14 18:29:13 33° 290° (WNW) 18:33:12 437.445
AAUSAT CUBESAT 2 21 Jan 18:29:26 18:32:51 26° 70° (ENE) 18:36:17 437.432
STARS 21 Jan 18:38:32 18:42:54 60° 286° (WNW) 18:47:15 437.465
STRAND 1 21 Jan 18:45:25 18:49:18 21° 94° (E) 18:53:11 437.568
KAITUO 1B 21 Jan 18:47:48 18:49:54 14° 267° (W) 18:51:59 145.475/437.950
SEEDS 21 Jan 18:49:25 18:53:38 73° 259° (W) 18:57:50 437.485
BEESAT 3 21 Jan 18:51:32 18:55:20 51° 243° (WSW) 18:59:03 437.485
Oscar 11 21 Jan 18:53:25 18:56:30 19° 67° (ENE) 18:59:36 .
NUDT-PHONESAT 21 Jan 18:58:08 18:59:25 11° 268° (W) 19:00:43 437.300
XW-2A 21 Jan 19:03:16 19:06:35 50° 75° (ENE) 19:09:55 145.665 - 145.685
RS-15 21 Jan 19:03:26 19:13:11 34° 256° (WSW) 19:22:35 29.354- 29.394
CUTE 1.7 + AOD 2 21 Jan 19:04:14 19:07:56 29° 264° (W) 19:11:41 437.475
HO-68 21 Jan 19:14:47 19:21:19 38° 262° (W) 19:27:53 435.675
CUBEBUG 2 21 Jan 19:24:46 19:28:34 29° 265° (W) 19:32:29 437.445
UWE-3 21 Jan 19:27:43 19:31:59 48° 261° (W) 19:36:23 435.000/436.395/437.385
BEESAT 2 21 Jan 19:41:25 19:45:22 60° 242° (WSW) 19:49:15 435.950
ZACube-1 21 Jan 19:49:21 19:53:42 55° 261° (W) 19:58:10 437.345
nSIGHT-1 21 Jan 19:55:31 19:58:36 57° 138° (SE) 20:01:43 .
AO-73 21 Jan 19:55:35 19:59:55 53° 261° (W) 20:04:23 145.935
AO-85 21 Jan 19:59:59 20:04:31 35° 52° (NE) 20:09:17 145.980
PCSat 21 Jan 20:03:08 20:07:47 29° 251° (WSW) 20:12:23 145.827
AAUSAT CUBESAT 2 21 Jan 20:04:53 20:08:13 23° 265° (W) 20:11:34 437.432
ISS 21 Jan 20:12:11 20:15:22 56° 138° (SE) 20:18:35 437.550
STRAND 1 21 Jan 20:23:47 20:28:37 43° 290° (WNW) 20:33:28 437.568
Oscar 11 21 Jan 20:28:20 20:32:21 36° 263° (W) 20:36:23 .
DELFI C3 21 Jan 20:32:28 20:36:08 40° 73° (ENE) 20:39:49 145.870
FO-29 21 Jan 20:34:57 20:40:10 85° 282° (WNW) 20:45:28 435.910
Max Valier Satellite 21 Jan 21:00:12 21:03:52 58° 75° (ENE) 21:07:33 145.860
EO-88 21 Jan 21:16:48 21:20:24 60° 75° (ENE) 21:24:01 145.990 - 145.960
nSIGHT-1 21 Jan 21:32:35 21:34:59 20° 336° (NNW) 21:37:24 .
AO-85 21 Jan 21:40:26 21:44:55 32° 246° (WSW) 21:49:35 145.980
ISS 21 Jan 21:49:30 21:52:04 21° 336° (NNW) 21:54:37 437.550
TIGRISAT 21 Jan 21:52:16 21:56:59 67° 101° (E) 22:01:37 435.000
YUBILEINY 21 Jan 21:59:38 22:07:03 31° 84° (E) 22:14:24 435.215
PRISM 21 Jan 22:03:00 22:05:44 17° 94° (E) 22:08:27 437.425
UNISAT 6 21 Jan 22:07:51 22:12:34 77° 284° (WNW) 22:17:14 437.425
DELFI C3 21 Jan 22:09:10 22:11:02 13° 268° (W) 22:12:54 145.870
LO-87 21 Jan 22:32:59 22:36:29 63° 76° (ENE) 22:40:02 145.935 - 145.965
SPROUT 21 Jan 22:37:43 22:39:33 13° 64° (ENE) 22:41:23 437.525
NO-84 21 Jan 22:48:01 22:49:47 15° 32° (NNE) 22:51:35 435.350 FM
ESTCUBE 1 21 Jan 22:50:29 22:55:00 80° 75° (ENE) 22:59:32 437.505/2401.250
O/OREOS (USA 219) 21 Jan 23:04:43 23:06:34 12° 98° (E) 23:08:25 437.305
DUCHIFAT 1 21 Jan 23:17:54 23:19:53 13° 92° (E) 23:21:51 145.980
EO-79 21 Jan 23:19:32 23:22:34 19° 94° (E) 23:25:35 145.935-145.965
TIGRISAT 21 Jan 23:30:54 23:33:03 13° 297° (WNW) 23:35:12 435.000
PRISM 21 Jan 23:37:22 23:41:04 34° 289° (WNW) 23:44:45 437.425
AIST 2D 21 Jan 23:39:50 23:43:15 56° 284° (WNW) 23:46:38 435.315
POLYITAN 1 21 Jan 23:53:57 23:58:06 46° 99° (E) 00:02:12 437.675
YUBILEINY 21 Jan 23:54:46 00:03:20 54° 283° (WNW) 00:11:56 435.215
NANOSAT C BR1 22 Jan 00:08:28 00:12:43 60° 101° (E) 00:16:55 145.865
SPROUT 22 Jan 00:10:46 00:14:55 56° 259° (W) 00:19:07 437.525
BUGSAT 1 22 Jan 00:15:13 00:17:04 13° 91° (E) 00:18:54 437.445
VELOX 1 22 Jan 00:21:49 00:26:12 81° 257° (WSW) 00:30:36 145.980
UKube-1 22 Jan 00:23:32 00:25:04 12° 63° (ENE) 00:26:36 .
QB50P2 22 Jan 00:23:40 00:27:57 69° 285° (WNW) 00:32:12 145.880/145.840
NO-84 22 Jan 00:24:19 00:27:05 44° 228° (SW) 00:29:58 435.350 FM
Oscar 19 22 Jan 00:26:29 00:28:12 11° 90° (E) 00:29:53 437.125/150
DX 1 22 Jan 00:35:22 00:38:58 26° 69° (ENE) 00:42:35 434.975-435.025
O/OREOS (USA 219) 22 Jan 00:40:59 00:45:25 57° 294° (WNW) 00:49:52 437.305
nSIGHT-1 22 Jan 00:47:56 00:49:27 13° 16° (NNE) 00:50:59 .
DUCHIFAT 1 22 Jan 00:51:39 00:55:47 49° 287° (WNW) 00:59:52 145.980
EO-79 22 Jan 00:54:30 00:58:24 35° 289° (WNW) 01:02:15 145.935-145.965
ISS 22 Jan 01:05:28 01:07:10 13° 16° (NNE) 01:08:53 437.550
50 SAT 22 Jan 01:13:38 01:16:40 61° 76° (ENE) 01:19:44 437.505
AO-91 22 Jan 01:30:20 01:34:53 65° 101° (ESE) 01:39:53 145.960
POLYITAN 1 22 Jan 01:30:58 01:33:27 15° 295° (WNW) 01:35:56 437.675
NANOSAT C BR1 22 Jan 01:46:14 01:47:52 12° 297° (WNW) 01:49:30 145.865
BUGSAT 1 22 Jan 01:48:32 01:52:40 51° 287° (WNW) 01:56:47 437.445
UKube-1 22 Jan 01:56:17 02:00:31 63° 258° (WSW) 02:04:48 .
Gurwin Techsat 1B 22 Jan 01:57:45 02:03:04 72° 102° (ESE) 02:08:22 435.225
Oscar 19 22 Jan 02:02:52 02:08:03 77° 285° (WNW) 02:13:10 437.125/150
ITUPSAT 1 22 Jan 02:05:45 02:09:39 26° 67° (ENE) 02:13:35 437.325
DX 1 22 Jan 02:11:29 02:15:04 25° 264° (W) 02:18:40 434.975-435.025
nSIGHT-1 22 Jan 02:23:06 02:26:12 51° 34° (NE) 02:29:19 .
MOZHAYETS 4 22 Jan 02:24:47 02:29:23 69° 75° (ENE) 02:34:01
AO-7 22 Jan 02:25:32 02:31:38 22° 93° (E) 02:37:40 .
CUBESAT XI-V 22 Jan 02:32:17 02:35:45 21° 67° (ENE) 02:39:13 437.345
FALCONSAT 3 22 Jan 02:36:06 02:37:51 13° 153° (SSE) 02:39:36 435.103
ISS 22 Jan 02:41:02 02:44:15 52° 35° (NE) 02:47:28 437.550
BEESAT 22 Jan 02:43:40 02:48:22 64° 74° (ENE) 02:53:06 436.000
AO-91 22 Jan 03:08:41 03:10:55 14° 294° (WNW) 03:13:14 145.960
ITAMSAT 1 22 Jan 03:12:15 03:16:24 24° 95° (E) 03:20:33 435.822/435.867
Gurwin Techsat 1B 22 Jan 03:39:30 03:42:22 15° 299° (WNW) 03:45:14 435.225
ITUPSAT 1 22 Jan 03:43:04 03:47:19 32° 263° (W) 03:51:37 437.325
KKS-1 22 Jan 03:46:39 03:49:39 18° 65° (ENE) 03:52:39 437.445
nSIGHT-1 22 Jan 04:00:12 04:02:04 15° 230° (SW) 04:03:56 .
MOZHAYETS 4 22 Jan 04:05:53 04:06:58 11° 270° (W) 04:08:04
CUBESAT XI-V 22 Jan 04:08:27 04:12:50 38° 262° (W) 04:17:13 437.345
FALCONSAT 3 22 Jan 04:13:00 04:16:21 34° 167° (SSE) 04:19:43 435.103
AO-7 22 Jan 04:16:43 04:25:05 76° 291° (WNW) 04:33:23 .
ISS 22 Jan 04:18:25 04:20:25 15° 230° (SW) 04:22:26 437.550
DOVE 4 22 Jan 04:23:38 04:27:35 31° 97° (E) 04:31:42 437.250
BEESAT 22 Jan 04:24:33 04:26:32 12° 269° (W) 04:28:31 436.000
ITAMSAT 1 22 Jan 04:51:08 04:55:57 40° 290° (WNW) 05:00:46 435.822/435.867
SO-50 22 Jan 05:07:49 05:12:15 81° 120° (ESE) 05:16:47 436.795
M-CUBED/EXP-1 PRIME 22 Jan 05:16:18 05:19:38 76° 107° (ESE) 05:22:51 437.505
XW-2B 22 Jan 05:17:50 05:19:46 14° 92° (E) 05:21:40 145.730 - 145.750
KKS-1 22 Jan 05:21:44 05:25:53 40° 261° (W) 05:30:03 437.445
STARS 22 Jan 05:33:32 05:37:53 79° 259° (WSW) 05:42:16 437.465
LilacSat-2 22 Jan 05:46:27 05:49:56 35° 97° (E) 05:53:24 437.200
XW-2C 22 Jan 05:47:00 05:50:24 32° 97° (E) 05:53:47 145.795 - 145.815
FALCONSAT 3 22 Jan 05:51:36 05:55:09 46° 182° (S) 05:58:40 435.103
STRAND 1 22 Jan 06:00:12 06:04:27 28° 67° (ENE) 06:08:45 437.568
DOVE 4 22 Jan 06:01:39 06:05:07 23° 291° (WNW) 06:08:41 437.250
AO-7 22 Jan 06:11:35 06:16:29 17° 310° (NW) 06:21:22 .
KAITUO 1B 22 Jan 06:17:41 06:21:19 56° 100° (E) 06:24:55 145.475/437.950
XW-2F 22 Jan 06:21:45 06:25:31 88° 102° (ESE) 06:29:13 145.980 - 146.000
NUDT-PHONESAT 22 Jan 06:26:08 06:29:47 69° 102° (ESE) 06:33:24 437.300
XW-2D 22 Jan 06:32:44 06:36:25 57° 285° (WNW) 06:40:05 145.860 - 145.880
CUTE-I 22 Jan 06:33:20 06:38:40 78° 104° (ESE) 06:44:00 437.470
SEEDS 22 Jan 06:34:54 06:37:54 19° 93° (E) 06:40:54 437.485
HO-68 22 Jan 06:42:51 06:49:41 46° 100° (E) 06:56:29 435.675
FO-29 22 Jan 06:45:20 06:51:29 38° 70° (ENE) 06:57:01 435.910
CUTE 1.7 + AOD 2 22 Jan 06:49:21 06:53:27 49° 99° (E) 06:57:30 437.475
XW-2B 22 Jan 06:50:35 06:54:03 35° 287° (WNW) 06:57:28 145.730 - 145.750
SO-50 22 Jan 06:50:55 06:53:18 14° 319° (NW) 06:55:43 436.795
RS-15 22 Jan 07:10:38 07:22:07 48° 109° (ESE) 07:33:29 29.354- 29.394
CUBEBUG 2 22 Jan 07:15:30 07:20:15 65° 101° (E) 07:24:56 437.445
UWE-3 22 Jan 07:18:11 07:22:31 37° 97° (E) 07:26:46 435.000/436.395/437.385
LilacSat-2 22 Jan 07:21:45 07:23:53 15° 293° (WNW) 07:26:01 437.200
XW-2C 22 Jan 07:22:01 07:24:17 16° 293° (WNW) 07:26:33 145.795 - 145.815
FALCONSAT 3 22 Jan 07:30:43 07:33:52 27° 197° (SSW) 07:37:01 435.103
ZACube-1 22 Jan 07:38:49 07:42:53 31° 96° (E) 07:46:51 437.345
STRAND 1 22 Jan 07:38:56 07:43:30 33° 263° (W) 07:48:05 437.568
AO-73 22 Jan 07:44:42 07:48:45 32° 96° (E) 07:52:42 145.935
AAUSAT CUBESAT 2 22 Jan 07:46:45 07:50:47 54° 100° (E) 07:54:48 437.432
XW-2A 22 Jan 07:57:59 08:01:19 62° 101° (E) 08:04:36 145.665 - 145.685
SEEDS 22 Jan 08:09:56 08:13:37 31° 289° (WNW) 08:17:17 437.485
YUBILEINY 22 Jan 08:12:17 08:16:15 14° 59° (ENE) 08:20:11 435.215
CUTE-I 22 Jan 08:15:27 08:18:01 14° 300° (WNW) 08:20:35 437.470
Oscar 11 22 Jan 08:16:11 08:20:19 42° 99° (E) 08:24:23 .
CUTE 1.7 + AOD 2 22 Jan 08:26:44 08:28:49 14° 295° (WNW) 08:30:54 437.475
FO-29 22 Jan 08:30:24 08:36:31 34° 262° (W) 08:42:03 435.910
HO-68 22 Jan 08:30:56 08:37:10 34° 297° (WNW) 08:43:24 435.675
BEESAT 3 22 Jan 08:39:33 08:43:01 30° 114° (ESE) 08:46:33 437.485
TIGRISAT 22 Jan 08:49:34 08:53:49 48° 73° (ENE) 08:58:11 435.000
PRISM 22 Jan 08:52:40 08:53:58 11° 63° (ENE) 08:55:14 437.425
CUBEBUG 2 22 Jan 08:53:54 08:56:16 14° 297° (WNW) 08:58:37 437.445
UWE-3 22 Jan 08:55:11 08:58:40 21° 293° (WNW) 09:02:08 435.000/436.395/437.385
PCSat 22 Jan 08:59:57 09:04:59 41° 111° (ESE) 09:10:03 145.827
UNISAT 6 22 Jan 09:05:05 09:09:30 80° 76° (ENE) 09:14:04 437.425
O/OREOS (USA 219) 22 Jan 09:13:23 09:16:51 21° 59° (ENE) 09:20:18 437.305
ZACube-1 22 Jan 09:15:22 09:18:58 23° 292° (WNW) 09:22:31 437.345
AO-73 22 Jan 09:21:13 09:24:46 23° 292° (WNW) 09:28:16 145.935
RS-15 22 Jan 09:22:29 09:34:29 55° 311° (NW) 09:46:20 29.354- 29.394
AAUSAT CUBESAT 2 22 Jan 09:24:11 09:25:44 12° 295° (WNW) 09:27:17 437.432
BEESAT 2 22 Jan 09:31:15 09:34:42 28° 113° (ESE) 09:38:10 435.950
DELFI C3 22 Jan 09:44:14 09:48:10 80° 103° (ESE) 09:52:05 145.870
Oscar 11 22 Jan 09:53:22 09:56:04 16° 294° (WNW) 09:58:45 .
Max Valier Satellite 22 Jan 10:04:27 10:08:09 85° 288° (WNW) 10:11:49 145.860
YUBILEINY 22 Jan 10:05:59 10:14:44 73° 81° (E) 10:23:23 435.215
EO-79 22 Jan 10:11:58 10:13:52 13° 64° (ENE) 10:15:47 145.935-145.965
AIST 2D 22 Jan 10:12:25 10:15:41 37° 73° (ENE) 10:18:57 435.315
BEESAT 3 22 Jan 10:17:19 10:20:33 23° 311° (NW) 10:23:48 437.485
EO-88 22 Jan 10:19:30 10:23:08 86° 278° (W) 10:26:44 145.990 - 145.960
PRISM 22 Jan 10:24:43 10:28:42 57° 259° (W) 10:32:43 437.425
TIGRISAT 22 Jan 10:28:19 10:30:47 15° 269° (W) 10:33:16 435.000
PCSat 22 Jan 10:43:51 10:48:29 28° 309° (NW) 10:53:09 145.827
ESTCUBE 1 22 Jan 10:44:56 10:48:00 18° 93° (E) 10:51:02 437.505/2401.250
POLYITAN 1 22 Jan 10:45:20 10:49:00 29° 70° (ENE) 10:52:43 437.675
O/OREOS (USA 219) 22 Jan 10:52:15 10:56:19 35° 256° (WSW) 11:00:23 437.305
NANOSAT C BR1 22 Jan 10:59:11 11:03:04 37° 71° (ENE) 11:06:58 145.865
BEESAT 2 22 Jan 11:08:59 11:12:21 25° 310° (NW) 11:15:46 435.950
QB50P2 22 Jan 11:14:34 11:18:46 74° 76° (ENE) 11:23:02 145.880/145.840
LO-87 22 Jan 11:33:37 11:37:16 87° 283° (WNW) 11:40:53 145.935 - 145.965
JUGNU 22 Jan 11:39:35 11:40:33 10° 182° (S) 11:41:32 437.505
Gurwin Techsat 1B 22 Jan 11:41:24 11:43:49 13° 60° (ENE) 11:46:13 435.225
Oscar 19 22 Jan 11:41:32 11:44:51 17° 63° (ENE) 11:48:10 437.125/150
DUCHIFAT 1 22 Jan 11:41:33 11:45:46 82° 259° (W) 11:50:00 145.980
RS-15 22 Jan 11:41:40 11:50:38 22° 341° (NNW) 11:59:24 29.354- 29.394
EO-79 22 Jan 11:45:00 11:49:07 54° 260° (W) 11:53:18 145.935-145.965
AIST 2D 22 Jan 11:47:50 11:48:59 11° 268° (W) 11:50:08 435.315
AO-85 22 Jan 11:53:36 11:57:31 65° 303° (WNW) 12:01:44 145.980
SPROUT 22 Jan 11:57:33 12:01:08 25° 96° (E) 12:04:41 437.525
YUBILEINY 22 Jan 12:04:25 12:10:33 22° 280° (W) 12:16:41 435.215
VELOX 1 22 Jan 12:13:26 12:16:42 20° 94° (E) 12:19:57 145.980
ESTCUBE 1 22 Jan 12:20:45 12:24:56 39° 289° (WNW) 12:29:05 437.505/2401.250
POLYITAN 1 22 Jan 12:21:30 12:24:46 22° 266° (W) 12:28:04 437.675
AO-91 22 Jan 12:27:43 12:30:49 35° 72° (ENE) 12:34:02 145.960
NANOSAT C BR1 22 Jan 12:36:06 12:38:52 17° 267° (W) 12:41:40 145.865
BUGSAT 1 22 Jan 12:36:28 12:40:33 88° 266° (W) 12:44:42 437.445
